Flag for U.S.A. Weather past 2 weeks in New Salem, North Dakota, U.S.A.

Now
47 °F

Overcast.


Feels Like: 41 °F
Forecast: 40 / 57 °F
Wind: 15 mph from Southeast

Location: Bismarck Municipal Airport

Current Time: Apr 25, 2015 at 11:35:10 AM

Latest Report: Apr 25, 2015 at 10:52 AM


Visibility: 10 mi

Pressure: 29.83 "Hg

Humidity: 83%

Dew point: 42 °F

Location of New SalemLocation

Historic Weather in New Salem — Graph

°F

New Salem temperature yesterday

Maximum temperature yesterday: 67 °F (at 4:52 PM)
Minimum temperature yesterday: 33 °F (at 6:52 AM)
Average temperature yesterday: 50 °F

Past Weeks' High & Low Weather Summary

 TemperatureHumidityPressure
High82 °F (Apr 14, 3:52 PM)93% (Apr 18, 11:52 PM)30.24 "Hg (Apr 18, 11:52 PM)
Low20 °F (Apr 22, 5:52 AM)13% (Apr 20, 2:52 PM)29.45 "Hg (Apr 12, 1:52 AM)
Average49 °F46%29.92 "Hg
* Reported Apr 10 9:52 AM — Apr 25 9:52 AM, New Salem, Weather by CustomWeather, © 2015

Note: Actual official high and low records may vary slightly from our data, if they occured in-between our weather recording intervals... More about our weather records

Advertising

New Salem weather history for previous 24 hours

 ConditionsComfort  
Time TempWeatherWind HumidityBarometerVisibility
9:52 AM
Sat, Apr 25
45 °FLow clouds.13 mph86%29.82 "Hg8 mi
8:52 AM44 °FFog.15 mph89%29.81 "Hg6 mi
7:52 AM44 °FLow clouds.14 mph89%29.79 "Hg7 mi
6:52 AM44 °FLow clouds.13 mph89%29.78 "Hg7 mi
5:52 AM44 °FLow clouds.7 mph89%29.77 "Hg7 mi
4:52 AM44 °FLow clouds.10 mph89%29.76 "Hg7 mi
3:52 AM45 °FOvercast.14 mph90%29.74 "Hg9 mi
2:52 AM43 °FOvercast.7 mph93%29.73 "Hg7 mi
1:52 AM41 °FPassing clouds.7 mph93%29.74 "Hg7 mi
12:52 AM43 °FClear.8 mph89%29.72 "Hg8 mi
11:52 PM
Fri, Apr 24
47 °FClear.12 mph83%29.72 "Hg10 mi
10:52 PM50 °FClear.13 mph74%29.72 "Hg10 mi
9:52 PM52 °FClear.10 mph66%29.69 "Hg10 mi
8:52 PM56 °FSunny.8 mph58%29.66 "Hg10 mi
7:52 PM63 °FSunny.12 mph43%29.64 "Hg10 mi
5:52 PM67 °FSunny.13 mph36%29.62 "Hg10 mi
4:52 PM67 °FSunny.10 mph36%29.61 "Hg10 mi
3:52 PM66 °FSunny.12 mph37%29.62 "Hg10 mi
2:52 PM66 °FSunny.15 mph36%29.62 "Hg10 mi
1:52 PM63 °FSunny.13 mph38%29.64 "Hg10 mi
12:52 PM60 °FSunny.8 mph41%29.66 "Hg10 mi
11:52 AM54 °FSunny.7 mph47%29.68 "Hg10 mi
Weather by CustomWeather, © 2015

See weather overviewHow to use our weather pages